カタログに戻る

STARLINK-30441

運用中通信VLEO
NORAD 57869·PAYLOAD·🇺🇸 United States

打ち上げ Sep 16, 2023 から Cape Canaveral Space Force Station

Loading…

次のパス (今後24時間)

TLE

最新Source: CelesTrak SupGP

元期: Sep 15, 2026, 02:03 UTC

1 57869C 23144F   26258.08590278  .00028366  00000+0  10272-2 0  2587
2 57869  43.0002 295.3544 0001245 270.0308 154.7759 15.27570089    13

AllMySatでSTARLINK-30441をリアルタイム追跡

Download on the App Store